Mather AFB, CA

4:34 AM PDT on March 29, 2017 (GMT -0700)
Mather

Weather History for KMHR - January, 2013

Change the Weather History Date:

Tuesday, January 29, 2013

  Actual Average Record
Temperature  
Mean Temperature 44 °F -  
Max Temperature 57 °F 53 °F 113 °F (2001)
Min Temperature 32 °F 37 °F 30 °F (2002)
Degree Days  
Heating Degree Days 20    
Moisture  
Dew Point 34 °F    
Average Humidity 73    
Maximum Humidity 100    
Minimum Humidity 38    
Precipitation  
Precipitation 0.00 in - - ()
Sea Level Pressure  
Sea Level Pressure 30.29 in    
Wind  
Wind Speed 3 mph (North)    
Max Wind Speed 17 mph    
Max Gust Speed 22 mph    
Visibility 10 miles    
Events      
Averages and records for this station are not official NWS values.
T = Trace of Precipitation, MM = Missing Value Source: NWS Daily Summary

Daily Weather History Graph

Daily Weather History Graph

Search for Another Location

Airport or City:

Trip Planner

Search our weather history database for the weather conditions in past years. The results will help you decide how hot, cold, wet, or windy it might be!

Date:

Astronomy

Jan. 29, 2013 Rise Set
Actual Time 7:12 AM PST 5:24 PM PST
Civil Twilight 6:44 AM PST 5:52 PM PST
Nautical Twilight 6:12 AM PST 6:24 PM PST
Astronomical Twilight 5:41 AM PST 6:55 PM PST
Moon 8:23 PM PST 8:15 AM PST
Length of Visible Light 11h 07m
Length of Day
10h 11m
Waning Gibbous, 93% of the Moon is Illuminated
Jan 29
Waning Gibbous
Feb 3
Last Quarter
Feb 9
New
Feb 17
First Quarter
Feb 25
Full

Hourly Weather History & Observations

Time (PST) Temp. Windchill Dew Point Humidity Pressure Visibility Wind Dir Wind Speed Gust Speed Precip Events Conditions
12:50 AM 35.6 °F - 32.0 °F 87% 30.27 in 10.0 mi Calm Calm - N/A   Scattered Clouds
3:50 AM 32.0 °F - 32.0 °F 100% 30.28 in 10.0 mi Calm Calm - N/A   Scattered Clouds
4:50 AM 33.8 °F - 32.0 °F 93% 30.29 in 10.0 mi Calm Calm - N/A   Scattered Clouds
5:45 AM 33.8 °F - 32.0 °F 93% 30.30 in 10.0 mi Calm Calm - N/A   Scattered Clouds
6:55 AM 32.0 °F 27.5 °F 32.0 °F 100% 30.31 in 10.0 mi East 4.6 mph - N/A   Scattered Clouds
7:47 AM 33.8 °F - 32.0 °F 93% 30.32 in 10.0 mi Calm Calm - N/A   Mostly Cloudy
8:55 AM 39.2 °F - 35.6 °F 87% 30.33 in 10.0 mi Calm Calm - N/A   Mostly Cloudy
9:47 AM 42.8 °F - 37.4 °F 81% 30.33 in 10.0 mi Calm Calm - N/A   Mostly Cloudy
10:45 AM 48.2 °F - 37.4 °F 66% 30.34 in 10.0 mi Calm Calm - N/A   Mostly Cloudy
11:55 AM 53.6 °F - 35.6 °F 51% 30.32 in 10.0 mi WNW 11.5 mph - N/A   Mostly Cloudy
12:46 PM 53.6 °F - 35.6 °F 51% 30.29 in 10.0 mi NNW 10.4 mph - N/A   Mostly Cloudy
1:48 PM 57.2 °F - 33.8 °F 41% 30.27 in 10.0 mi NNW 13.8 mph - N/A   Mostly Cloudy
2:54 PM 57.2 °F - 32.0 °F 38% 30.25 in 10.0 mi NW 17.3 mph 21.9 mph N/A   Mostly Cloudy
3:46 PM 57.2 °F - 35.6 °F 44% 30.25 in 10.0 mi North 11.5 mph - N/A   Mostly Cloudy
4:45 PM 55.4 °F - 35.6 °F 47% 30.25 in 10.0 mi NW 9.2 mph - N/A   Mostly Cloudy
5:45 PM 53.6 °F - 35.6 °F 51% 30.25 in 10.0 mi NNW 4.6 mph - N/A   Scattered Clouds
6:45 PM 46.4 °F - 35.6 °F 66% 30.27 in 10.0 mi Calm Calm - N/A   Scattered Clouds
7:45 PM 41.0 °F 37.1 °F 35.6 °F 81% 30.28 in 10.0 mi SSW 5.8 mph - N/A   Clear
8:47 PM 39.2 °F 35.0 °F 35.6 °F 87% 30.29 in 10.0 mi East 5.8 mph - N/A   Clear
9:45 PM 39.2 °F 37.0 °F 35.6 °F 87% 30.29 in 10.0 mi East 3.5 mph - N/A   Clear
10:45 PM 37.4 °F 34.9 °F 35.6 °F 93% 30.30 in 10.0 mi NNE 3.5 mph - N/A   Clear